Wind_Speed
4 4 4 5 5 5 4 4 2 2 2 2 2 2 1 1 1 1 2 2 2 1 0 1 1 1 1 2 1 1 1 1 1 1 1 1 1 1 1 1 1 2 2 2 3 4 4 4 4
3 4 4 5 5 5 4 3 3 3 2 3 3 3 2 1 1 2 2 2 2 2 2 1 1 2 2 1 1 1 0 0 0 0 1 1 1 1 1 0 1 1 2 2 3 4 5 5 5
4 4 5 5 6 6 5 4 4 4 3 3 4 4 2 2 2 3 3 3 3 3 2 2 2 2 2 2 2 1 1 1 1 1 1 1 1 1 0 1 1 1 2 2 3 4 5 6 6
4 4 5 6 7 6 5 5 5 4 5 5 5 4 4 4 4 4 3 4 3 3 3 4 4 4 3 4 3 3 2 2 2 2 1 1 1 1 2 2 2 2 3 4 4 4 5 6 6
4 4 5 6 6 7 7 7 6 6 6 6 6 5 6 5 5 5 4 4 4 4 4 4 5 5 5 5 4 4 4 3 3 3 3 2 2 3 3 3 3 3 4 4 5 5 5 6 6
4 5 5 6 6 6 7 7 7 7 7 7 7 7 7 7 7 6 6 5 5 5 5 5 5 6 6 6 6 5 5 4 4 4 4 4 4 4 4 5 5 4 4 5 5 6 6 7 7
5 5 6 6 6 6 6 7 8 8 8 8 9 9 9 9 8 8 7 7 6 6 6 6 6 6 7 7 7 7 6 6 5 4 5 5 5 5 6 5 5 5 5 6 6 6 7 7 7
6 7 8 8 7 7 7 8 8 9 9 9 9 10 10 10 10 10 9 8 8 7 7 7 7 7 7 7 7 7 7 6 6 5 5 5 6 6 6 6 6 6 6 6 6 7 7 7 8
7 8 8 8 9 8 9 9 9 10 10 10 10 11 11 11 11 10 10 10 9 8 8 8 7 7 7 8 7 7 7 7 6 6 5 6 7 7 7 7 7 6 6 6 7 7 8 8 8
7 8 9 9 9 9 10 10 9 10 10 10 10 10 10 11 11 11 11 11 10 10 10 9 9 9 9 9 8 8 7 7 7 8 7 7 7 8 8 8 7 6 7 7 7 8 9 9 9
8 9 9 10 10 10 10 11 10 10 10 11 11 10 11 11 11 11 11 11 11 10 10 10 10 9 9 9 9 8 8 8 8 9 9 9 10 9 9 9 8 8 7 7 8 8 9 9 9
8 9 10 11 11 11 11 11 11 11 11 12 11 11 11 11 11 11 11 11 11 11 11 11 11 10 10 9 10 10 9 9 10 10 10 11 10 10 9 9 9 8 8 8 8 9 9 9 9
9 9 10 11 11 12 12 12 12 12 12 12 12 13 12 12 11 11 12 13 12 12 12 12 12 11 11 11 11 10 10 11 11 10 11 11 11 10 10 10 10 9 9 9 10 10 10 10 10
9 10 10 11 12 12 12 12 13 12 12 13 13 13 13 13 13 12 13 13 13 13 12 13 12 12 13 12 12 12 12 12 12 12 12 12 12 11 11 10 10 10 10 11 11 11 11 11 10
10 10 11 11 12 12 12 12 13 12 12 13 13 13 13 13 13 13 13 14 14 13 13 13 13 13 13 13 14 13 13 13 13 13 13 12 12 12 12 12 12 11 10 11 11 11 11 12 11
10 10 11 11 11 11 12 12 13 13 12 13 13 13 13 13 13 13 14 14 14 13 13 13 13 14 14 14 13 13 13 13 14 13 13 13 12 12 12 13 13 12 11 12 12 11 11 12 12
10 10 11 11 11 12 12 13 14 14 13 13 13 13 13 14 14 14 14 15 15 14 14 14 14 14 14 14 14 14 14 14 13 13 13 12 13 13 14 14 13 13 12 12 13 12 12 12 12
9 10 10 11 11 12 12 12 14 14 14 14 14 14 14 14 14 14 14 15 15 14 14 14 15 14 14 14 14 14 14 14 14 13 13 13 14 14 14 14 13 12 12 13 12 12 13 12 12
10 10 11 11 12 12 12 12 13 14 14 14 15 14 14 15 15 14 15 15 15 15 14 14 14 14 14 14 14 14 14 14 14 13 13 14 15 15 14 14 13 13 13 13 12 13 13 12 12
10 11 11 11 12 12 12 12 13 14 15 15 15 15 15 15 15 15 15 15 16 15 15 15 15 15 15 15 14 14 14 13 13 13 13 13 14 14 14 13 13 13 13 13 13 13 13 13 13
9 10 11 11 12 12 12 13 13 13 14 14 15 16 15 15 15 15 16 15 16 15 16 16 15 15 14 13 13 13 13 13 13 13 14 14 14 14 13 13 13 13 13 13 14 14 14 14 13
9 9 10 11 12 11 12 13 14 13 14 15 15 15 15 14 15 15 15 16 16 15 16 15 15 14 14 14 13 13 13 13 13 14 14 14 13 13 13 12 12 13 13 13 13 14 13 13 13
9 10 10 10 11 11 13 14 15 15 15 15 15 15 15 15 15 15 15 16 16 16 15 15 15 15 14 13 13 14 13 14 14 14 14 14 13 13 13 12 13 13 13 13 13 13 13 14 14
10 10 10 10 11 12 12 14 15 16 16 16 15 15 15 15 16 16 16 16 16 16 16 15 15 14 14 13 13 14 14 14 14 13 13 13 13 13 13 13 13 13 13 13 13 13 13 13 14
10 10 10 10 11 12 13 15 15 15 16 16 16 15 15 16 16 17 16 16 16 16 15 14 14 14 14 14 14 14 14 13 13 13 14 14 14 13 13 13 13 13 13 13 14 13 13 13 13
11 10 10 10 11 13 14 15 15 16 17 16 16 16 16 16 16 16 16 16 15 15 15 14 14 14 14 14 14 15 14 14 14 14 14 14 14 14 14 13 13 13 13 13 14 14 13 13 13
12 12 11 12 12 12 14 17 17 16 17 17 16 16 16 16 16 16 16 15 15 15 15 15 15 15 15 15 16 16 15 14 15 15 15 15 14 14 14 13 13 14 14 14 14 14 13 14 14
14 13 13 13 13 12 13 16 18 18 18 17 17 16 15 15 15 15 15 15 15 14 14 15 15 15 15 15 16 16 15 15 15 15 15 15 15 15 15 15 15 15 15 15 16 15 15 15 15
14 15 15 15 14 14 15 16 18 19 19 18 18 17 16 16 16 16 16 16 16 15 15 15 15 15 15 15 15 16 16 16 15 15 15 15 15 16 16 16 15 15 16 16 15 15 16 16 16
16 16 16 16 16 16 17 18 19 19 19 19 18 18 18 18 17 17 17 17 17 16 15 15 15 15 15 15 16 16 17 16 16 16 16 16 15 16 16 16 15 15 16 16 16 15 16 16 16
Wind_Direction
169 164 165 171 173 180 184 187 184 188 211 214 228 238 282 345 3 342 337 331 322 329 264 199 182 187 175 151 140 121 106 99 108 105 114 123 120 115 93 85 72 66 53 36 29 29 15 10 4
191 185 176 175 184 198 212 212 213 230 233 230 236 253 273 298 321 330 317 313 305 307 290 253 236 228 227 215 210 183 185 48 258 264 181 168 155 138 122 117 32 22 13 3 6 11 3 357 352
206 205 197 192 202 210 222 224 225 240 242 237 241 253 268 277 292 306 305 299 298 301 283 251 229 241 249 250 239 220 242 260 278 271 230 225 247 250 240 290 304 323 329 339 349 355 356 351 346
213 212 216 211 217 225 237 235 233 245 249 248 251 255 260 268 281 288 296 296 294 295 281 255 239 248 258 255 253 245 266 275 270 266 247 255 277 283 296 304 303 302 304 313 321 333 345 344 342
220 218 221 225 228 237 245 247 243 249 251 253 255 252 253 261 270 278 286 294 295 292 286 273 256 260 264 266 268 270 270 282 284 279 269 271 283 284 296 301 305 301 301 307 310 318 332 338 335
220 223 227 230 238 248 252 253 254 253 251 254 257 254 253 260 268 276 281 285 289 288 286 284 275 265 261 263 265 264 263 276 279 271 268 272 290 298 298 297 302 301 304 307 309 319 327 330 327
231 231 238 242 245 253 257 257 257 258 260 258 258 259 257 260 267 274 277 280 282 285 288 288 279 272 262 260 264 263 266 270 267 264 264 268 277 290 294 295 298 300 300 303 303 311 318 323 323
241 244 246 248 248 252 258 261 264 263 263 264 267 264 262 262 265 270 273 276 279 281 285 288 286 276 270 263 265 262 264 269 267 267 270 272 270 280 290 292 293 293 299 302 310 311 312 316 318
247 248 251 255 256 257 258 262 265 268 267 266 269 270 267 267 267 270 273 275 274 278 284 285 286 278 273 270 262 257 259 266 267 268 268 269 272 278 284 288 287 287 295 301 310 314 313 311 314
250 252 255 258 258 257 258 261 262 266 269 270 271 272 268 269 270 270 274 274 273 276 279 281 279 281 277 268 262 258 261 265 266 266 269 272 275 280 282 282 283 285 295 300 305 309 311 309 311
255 258 261 263 264 262 264 264 264 267 269 272 275 274 272 271 270 270 274 276 276 277 277 279 281 281 280 274 265 267 266 263 263 266 269 269 273 278 282 284 286 287 293 297 301 305 311 307 307
258 260 261 264 266 266 269 268 267 268 271 271 273 276 277 275 274 275 276 276 278 275 274 276 277 278 278 278 274 272 266 265 265 269 271 273 273 274 278 282 284 286 292 295 298 304 308 304 303
263 264 265 266 266 266 267 268 270 269 272 273 274 275 276 277 275 274 274 276 276 274 273 274 276 277 279 279 278 276 269 265 268 272 274 277 279 278 277 276 281 284 287 291 294 297 302 302 300
263 264 265 266 265 265 267 268 270 272 271 274 275 273 274 276 276 275 276 276 276 275 275 273 273 274 277 277 277 276 275 272 270 272 274 277 280 278 275 277 279 284 288 290 292 295 300 301 298
261 263 265 266 267 267 266 266 268 272 275 275 274 273 272 272 274 276 277 277 275 275 278 276 272 273 276 278 279 279 279 277 275 275 274 273 277 277 274 273 277 283 289 289 292 296 299 301 299
263 265 267 269 268 269 267 266 268 270 273 274 276 275 273 273 275 277 278 278 276 275 276 278 275 273 275 277 279 280 278 277 276 276 275 275 278 277 276 276 278 282 285 287 291 295 298 300 300
267 268 271 271 270 270 269 269 270 272 273 274 275 276 275 277 277 277 278 278 279 278 276 274 276 276 275 275 276 277 279 279 278 277 277 279 279 278 278 280 278 280 283 286 289 292 295 297 298
269 269 272 274 274 273 273 273 274 275 276 275 276 277 277 276 277 278 279 280 282 281 278 275 275 275 276 275 274 274 275 276 275 276 276 275 276 276 280 279 276 279 281 285 287 292 294 293 293
265 268 267 271 275 276 277 278 278 278 278 278 278 280 278 278 277 277 280 282 285 284 281 280 278 275 276 275 273 271 273 273 271 273 274 275 277 277 278 277 277 278 280 281 286 291 290 290 291
266 268 266 269 277 280 280 279 281 280 281 280 279 280 280 279 278 278 279 281 284 282 281 280 278 276 273 271 272 271 270 270 270 271 272 273 276 277 278 278 277 277 278 282 285 286 287 287 288
271 271 272 270 275 281 286 285 285 286 285 283 280 280 281 281 282 281 281 282 282 281 280 281 281 278 275 270 273 269 267 266 267 272 272 274 276 276 278 276 275 277 278 281 283 284 284 285 286
275 275 275 276 280 288 292 293 290 291 288 286 283 281 280 280 281 281 281 282 282 281 279 279 281 279 277 274 271 268 270 266 266 270 272 275 278 280 280 279 278 278 280 283 284 284 283 285 286
276 277 279 279 279 285 291 291 293 292 290 288 286 283 281 279 280 281 282 282 281 281 280 279 279 278 277 272 269 270 271 270 266 267 270 272 276 279 279 276 277 277 279 281 283 282 283 285 285
276 275 277 279 282 283 288 291 290 292 290 287 286 284 282 280 281 280 282 282 281 281 280 278 278 277 275 270 268 269 268 269 269 269 272 274 274 276 279 278 277 279 280 281 283 283 284 286 285
273 278 282 285 287 288 291 288 287 288 289 288 290 288 285 284 284 284 284 285 283 280 278 277 276 276 275 271 268 271 269 269 274 273 272 274 274 274 275 277 278 279 280 281 284 283 284 285 286
272 274 277 278 280 284 287 286 289 289 288 289 290 287 287 287 286 285 285 284 282 278 274 273 273 273 271 271 271 271 270 272 275 274 274 276 276 275 275 275 278 278 281 283 285 284 283 282 284
268 266 267 268 269 272 281 287 291 290 290 290 289 288 288 287 286 285 283 282 281 276 272 271 271 271 270 271 271 270 267 271 274 274 274 275 276 276 279 279 277 278 279 282 284 285 283 283 285
272 269 266 268 271 271 274 281 288 292 291 290 291 289 289 288 285 283 282 279 280 277 274 271 271 271 270 270 269 269 269 271 271 273 274 275 274 275 277 278 280 280 278 281 282 280 281 281 284
270 267 265 266 272 274 272 275 282 286 286 288 292 290 289 288 286 285 283 281 280 280 277 271 271 271 270 268 268 269 271 271 271 273 271 273 275 276 276 277 280 281 280 282 281 279 280 282 283
270 269 268 266 269 272 274 275 283 285 284 286 287 286 285 285 285 283 281 280 278 278 275 272 273 272 270 269 268 271 271 270 272 273 271 272 275 276 275 274 277 280 282 280 279 279 279 281 281
Height
5879 5880 5881 5882 5883 5884 5883 5884 5884 5885 5886 5886 5886 5887 5887 5888 5889 5891 5889 5888 5888 5888 5888 5888 5888 5889 5888 5888 5888 5888 5888 5888 5888 5888 5888 5888 5888 5888 5889 5889 5888 5888 5888 5888 5888 5888 5887 5887 5887
5879 5880 5881 5882 5883 5883 5884 5883 5884 5885 5886 5886 5886 5887 5888 5888 5888 5888 5888 5888 5888 5888 5888 5888 5888 5888 5889 5889 5889 5889 5889 5889 5889 5888 5888 5889 5889 5889 5889 5889 5889 5889 5889 5888 5888 5888 5888 5887 5886
5879 5880 5882 5882 5883 5883 5884 5883 5884 5885 5885 5886 5887 5887 5888 5888 5889 5888 5888 5888 5888 5888 5888 5888 5888 5888 5889 5889 5889 5889 5889 5889 5889 5889 5889 5889 5889 5889 5889 5889 5889 5889 5889 5888 5888 5888 5888 5887 5886
5879 5880 5882 5882 5882 5883 5883 5883 5884 5885 5885 5886 5886 5887 5887 5888 5888 5888 5888 5888 5888 5888 5888 5888 5888 5888 5888 5889 5889 5889 5889 5889 5889 5889 5889 5889 5889 5889 5889 5889 5889 5889 5888 5888 5888 5888 5887 5886 5886
5879 5880 5881 5881 5881 5882 5883 5883 5883 5884 5885 5885 5886 5887 5887 5887 5888 5888 5888 5888 5888 5888 5888 5888 5888 5888 5888 5888 5888 5889 5888 5889 5889 5889 5888 5888 5889 5888 5888 5888 5888 5888 5888 5888 5887 5887 5886 5886 5885
5879 5879 5880 5880 5881 5881 5882 5882 5883 5883 5884 5885 5885 5886 5886 5887 5887 5887 5887 5887 5887 5887 5888 5887 5887 5887 5887 5888 5888 5888 5888 5888 5888 5888 5888 5888 5888 5888 5888 5888 5887 5887 5887 5887 5886 5886 5886 5885 5885
5879 5879 5879 5880 5880 5881 5881 5881 5882 5883 5883 5884 5885 5885 5886 5886 5886 5886 5887 5887 5887 5887 5887 5887 5886 5886 5886 5886 5887 5887 5887 5887 5887 5887 5888 5888 5888 5888 5887 5887 5887 5886 5886 5886 5886 5885 5885 5884 5884
5877 5879 5878 5878 5879 5880 5881 5881 5881 5882 5882 5883 5883 5884 5884 5885 5885 5885 5886 5886 5886 5886 5886 5886 5885 5885 5885 5885 5885 5886 5886 5886 5886 5887 5887 5887 5887 5887 5887 5886 5886 5886 5885 5885 5885 5884 5884 5883 5883
5876 5878 5877 5877 5878 5879 5879 5880 5880 5880 5881 5881 5882 5882 5883 5883 5883 5884 5884 5884 5885 5885 5884 5884 5884 5884 5884 5884 5884 5884 5885 5885 5885 5886 5886 5886 5886 5886 5886 5885 5885 5884 5884 5884 5884 5884 5883 5882 5882
5875 5876 5876 5876 5877 5877 5878 5878 5879 5879 5879 5880 5880 5880 5881 5881 5882 5882 5883 5883 5883 5883 5883 5883 5883 5883 5883 5883 5883 5883 5883 5883 5884 5884 5885 5885 5885 5885 5885 5884 5884 5883 5883 5883 5883 5882 5882 5881 5880
5873 5874 5874 5874 5875 5876 5876 5877 5877 5878 5878 5878 5878 5879 5879 5880 5880 5880 5881 5881 5881 5881 5881 5881 5881 5881 5881 5881 5881 5881 5881 5882 5882 5883 5883 5883 5883 5883 5883 5883 5882 5882 5882 5882 5882 5881 5880 5880 5879
5872 5872 5873 5873 5873 5874 5874 5875 5875 5876 5877 5877 5877 5877 5877 5878 5878 5878 5879 5879 5879 5879 5879 5879 5879 5879 5879 5879 5879 5879 5880 5880 5880 5881 5881 5881 5881 5881 5881 5881 5881 5881 5881 5880 5880 5880 5879 5878 5878
5870 5871 5871 5871 5872 5872 5873 5873 5874 5874 5874 5875 5875 5875 5876 5876 5876 5876 5877 5877 5877 5877 5877 5877 5877 5877 5877 5877 5877 5878 5878 5878 5878 5879 5879 5879 5879 5879 5879 5879 5879 5879 5879 5879 5878 5878 5877 5877 5876
5869 5869 5869 5869 5870 5870 5871 5871 5872 5872 5872 5873 5873 5873 5874 5874 5874 5874 5874 5875 5875 5875 5875 5875 5875 5875 5875 5875 5875 5875 5875 5876 5876 5876 5877 5877 5877 5877 5877 5877 5877 5877 5877 5877 5876 5876 5875 5875 5874
5866 5867 5867 5867 5868 5868 5869 5869 5869 5870 5870 5871 5871 5871 5871 5871 5872 5872 5872 5872 5872 5872 5872 5872 5873 5873 5873 5873 5873 5873 5873 5873 5874 5874 5874 5874 5874 5874 5875 5875 5875 5875 5875 5875 5874 5874 5873 5873 5872
5864 5864 5865 5865 5866 5866 5868 5868 5867 5867 5868 5868 5868 5868 5869 5869 5869 5869 5869 5869 5869 5869 5870 5870 5870 5870 5870 5870 5870 5870 5871 5871 5871 5871 5872 5872 5872 5872 5872 5872 5872 5872 5873 5873 5872 5872 5871 5871 5870
5862 5862 5863 5863 5863 5864 5865 5865 5865 5865 5866 5866 5866 5866 5866 5867 5867 5867 5867 5867 5866 5867 5867 5867 5867 5867 5867 5867 5868 5868 5868 5868 5868 5869 5869 5870 5870 5870 5870 5870 5870 5870 5870 5870 5870 5869 5869 5868 5868
5860 5860 5860 5861 5861 5862 5862 5862 5862 5862 5863 5863 5863 5863 5863 5864 5864 5864 5864 5864 5864 5864 5864 5863 5863 5864 5864 5864 5865 5865 5865 5866 5866 5866 5867 5867 5867 5867 5867 5867 5867 5867 5868 5868 5867 5867 5866 5866 5865
5858 5858 5858 5859 5858 5859 5859 5860 5860 5860 5860 5860 5860 5860 5861 5861 5861 5861 5861 5861 5861 5861 5860 5860 5860 5860 5861 5861 5862 5862 5862 5863 5863 5863 5864 5864 5865 5865 5865 5865 5864 5865 5865 5865 5865 5864 5864 5863 5863
5856 5856 5856 5857 5856 5857 5857 5857 5857 5857 5857 5857 5857 5857 5857 5857 5857 5857 5857 5858 5857 5857 5857 5857 5857 5857 5857 5858 5858 5859 5859 5860 5860 5861 5861 5861 5862 5862 5862 5862 5862 5862 5862 5862 5862 5861 5861 5861 5860
5854 5854 5854 5854 5854 5854 5855 5855 5854 5854 5854 5854 5854 5854 5854 5854 5854 5854 5854 5854 5854 5854 5854 5854 5854 5854 5854 5855 5855 5856 5856 5857 5857 5858 5858 5858 5859 5859 5859 5859 5859 5859 5859 5859 5859 5858 5858 5858 5857
5852 5852 5852 5852 5852 5852 5853 5852 5852 5851 5851 5851 5851 5851 5851 5851 5851 5850 5850 5850 5850 5850 5850 5850 5851 5851 5851 5852 5852 5853 5853 5854 5854 5855 5855 5855 5855 5856 5856 5856 5856 5856 5856 5856 5855 5855 5855 5855 5854
5850 5850 5850 5850 5849 5850 5850 5850 5850 5848 5848 5848 5848 5848 5848 5848 5847 5847 5847 5847 5847 5847 5847 5847 5847 5848 5848 5849 5849 5849 5850 5850 5851 5852 5852 5852 5852 5852 5853 5853 5853 5853 5853 5852 5852 5852 5852 5851 5851
5847 5848 5848 5848 5847 5848 5848 5848 5847 5846 5845 5845 5845 5845 5844 5844 5844 5844 5844 5844 5844 5844 5844 5844 5844 5844 5844 5845 5846 5846 5846 5847 5847 5848 5849 5849 5849 5849 5849 5849 5850 5850 5849 5849 5849 5848 5848 5848 5848
5845 5846 5846 5845 5845 5846 5846 5845 5845 5844 5842 5842 5842 5842 5841 5841 5841 5841 5841 5840 5840 5840 5840 5840 5841 5841 5841 5842 5842 5843 5843 5844 5844 5845 5845 5846 5846 5846 5846 5846 5846 5846 5846 5846 5846 5845 5845 5845 5844
5843 5843 5844 5844 5844 5844 5843 5842 5842 5841 5840 5839 5839 5838 5838 5837 5837 5837 5837 5837 5836 5837 5837 5837 5837 5837 5838 5838 5839 5839 5840 5841 5841 5842 5842 5842 5843 5843 5843 5843 5843 5843 5843 5843 5842 5842 5841 5841 5841
5839 5840 5841 5841 5840 5840 5840 5839 5838 5837 5836 5836 5835 5835 5834 5834 5833 5833 5833 5833 5833 5833 5833 5833 5834 5834 5835 5835 5835 5836 5837 5837 5838 5838 5838 5839 5839 5839 5839 5839 5839 5840 5839 5839 5839 5839 5838 5838 5837
5836 5836 5837 5836 5836 5837 5837 5837 5835 5834 5833 5832 5831 5831 5831 5830 5830 5829 5829 5829 5829 5828 5828 5829 5830 5831 5831 5832 5832 5832 5833 5833 5834 5834 5835 5835 5835 5835 5836 5836 5836 5836 5836 5836 5835 5835 5835 5834 5834
5833 5833 5833 5833 5833 5834 5834 5835 5832 5831 5829 5828 5827 5827 5827 5826 5826 5825 5825 5825 5825 5825 5825 5825 5826 5827 5827 5828 5828 5829 5829 5829 5830 5831 5831 5831 5831 5831 5832 5832 5832 5832 5832 5832 5831 5831 5831 5830 5830
5828 5829 5829 5830 5830 5829 5829 5832 5828 5827 5825 5824 5823 5823 5822 5822 5822 5821 5821 5821 5821 5821 5821 5822 5822 5823 5823 5824 5824 5825 5825 5826 5826 5827 5827 5827 5827 5827 5828 5828 5828 5828 5828 5828 5827 5827 5827 5826 5826